19.05.2024;14:00;83
19.05.2024;13:00;87
19.05.2024;12:00;87
19.05.2024;11:00;81
19.05.2024;10:00;78
19.05.2024;09:00;65
19.05.2024;08:00;50
19.05.2024;07:00;46
19.05.2024;06:00;51
19.05.2024;05:00;57
19.05.2024;04:00;56
19.05.2024;03:00;60
19.05.2024;02:00;36
19.05.2024;01:00;28
19.05.2024;00:00;11
18.05.2024;23:00;25
18.05.2024;22:00;54
18.05.2024;21:00;78
18.05.2024;20:00;85
18.05.2024;19:00;85
18.05.2024;18:00;79
18.05.2024;17:00;74
18.05.2024;16:00;67
18.05.2024;15:00;58
18.05.2024;14:00;57
18.05.2024;13:00;46
18.05.2024;12:00;53
18.05.2024;11:00;55
18.05.2024;10:00;62
18.05.2024;09:00;65
18.05.2024;08:00;69
18.05.2024;07:00;66
18.05.2024;06:00;59
18.05.2024;05:00;60
18.05.2024;04:00;62
18.05.2024;03:00;63
18.05.2024;02:00;65
18.05.2024;01:00;65
18.05.2024;00:00;65
17.05.2024;23:00;63
17.05.2024;22:00;64
17.05.2024;21:00;65
17.05.2024;20:00;66
17.05.2024;19:00;69
17.05.2024;18:00;70
17.05.2024;17:00;71
17.05.2024;16:00;67
17.05.2024;15:00;63
